When you browse on this site, cookies collect data to enhance your experience and personalize the content and advertising you see.
Visit our Privacy Policy to learn more. By continuing to use the site, you agree to this use of cookies and data.
  • In Romania
  • List of Countries
  • For 7 days
  • Water Temperature
  • Satellite Maps
  • Weather Map
  • Weather Widgets
  • user-avatar
    Login

    Hourly Weather Newcastle

    Today, 21 January, Monday

    Time Temperature Precipitation Wind Pressure Humidity
    00:00 +25°C° 0.1 mm 2 mps 763 mmHg 94%
    01:00 +25°C° 0.1 mm 2 mps 763 mmHg 95%
    02:00 +25°C° 0.1 mm 1 mps 763 mmHg 96%
    03:00 +25°C° 0.1 mm 1 mps 763 mmHg 97%
    04:00 +25°C° 0 mm 1 mps 762 mmHg 97%
    05:00 +25°C° 1.3 mm 1 mps 762 mmHg 97%
    06:00 +25°C° 1.3 mm 1 mps 762 mmHg 96%
    07:00 +25°C° 1.3 mm 1 mps 762 mmHg 96%
    08:00 +26°C° 2 mm 1 mps 763 mmHg 94%
    09:00 +26°C° 2 mm 1 mps 763 mmHg 93%
    10:00 +27°C° 2 mm 1 mps 763 mmHg 92%
    11:00 +27°C° 2.7 mm 1 mps 763 mmHg 91%
    12:00 +27°C° 2.7 mm 1 mps 762 mmHg 90%
    13:00 +27°C° 2.7 mm 2 mps 762 mmHg 89%
    14:00 +26°C° 3.6 mm 2 mps 762 mmHg 92%
    15:00 +25°C° 3.6 mm 2 mps 762 mmHg 94%
    16:00 +24°C° 3.6 mm 2 mps 761 mmHg 97%
    17:00 +24°C° 1 mm 2 mps 761 mmHg 97%
    18:00 +24°C° 1 mm 3 mps 762 mmHg 96%
    19:00 +24°C° 1 mm 3 mps 762 mmHg 96%
    20:00 +24°C° 0.9 mm 3 mps 762 mmHg 97%
    21:00 +24°C° 0.9 mm 3 mps 762 mmHg 97%
    22:00 +24°C° 0.9 mm 3 mps 762 mmHg 98%
    23:00 +24°C° 0.1 mm 3 mps 761 mmHg 98%

    Tomorrow, 22 January, Tuesday

    Time Temperature Precipitation Wind Pressure Humidity
    00:00 +24°C° 0.1 mm 3 mps 761 mmHg 97%
    01:00 +22°C° 0.1 mm 3 mps 761 mmHg 97%
    02:00 +22°C° 0 mm 3 mps 761 mmHg 97%
    03:00 +23°C° 0 mm 2 mps 760 mmHg 97%
    04:00 +23°C° 0 mm 2 mps 760 mmHg 98%
    05:00 +23°C° 0 mm 2 mps 760 mmHg 96%
    06:00 +24°C° 0 mm 2 mps 761 mmHg 94%
    07:00 +24°C° 0 mm 2 mps 761 mmHg 92%
    08:00 +26°C° 0 mm 2 mps 761 mmHg 84%
    09:00 +28°C° 0 mm 2 mps 761 mmHg 75%
    10:00 +29°C° 0 mm 2 mps 761 mmHg 67%
    11:00 +31°C° 0 mm 2 mps 760 mmHg 61%
    12:00 +34°C° 0 mm 2 mps 760 mmHg 55%
    13:00 +36°C° 0 mm 3 mps 759 mmHg 49%
    14:00 +36°C° 0 mm 3 mps 759 mmHg 50%
    15:00 +35°C° 0 mm 4 mps 758 mmHg 52%
    16:00 +34°C° 0 mm 4 mps 758 mmHg 54%
    17:00 +32°C° 0 mm 4 mps 758 mmHg 61%
    18:00 +30°C° 0 mm 4 mps 758 mmHg 69%
    19:00 +28°C° 0 mm 4 mps 758 mmHg 76%
    20:00 +27°C° 0 mm 4 mps 758 mmHg 80%
    21:00 +26°C° 0 mm 4 mps 759 mmHg 85%
    22:00 +25°C° 0 mm 3 mps 759 mmHg 89%
    23:00 +25°C° 0 mm 3 mps 759 mmHg 92%

    Day after tomorrow, 23 January, Wednesday

    Time Temperature Precipitation Wind Pressure Humidity
    00:00 +24°C° 0 mm 3 mps 758 mmHg 94%
    01:00 +23°C° 0 mm 2 mps 758 mmHg 97%
    02:00 +23°C° 0 mm 2 mps 757 mmHg 97%
    03:00 +23°C° 0 mm 2 mps 757 mmHg 97%
    04:00 +23°C° 0 mm 2 mps 757 mmHg 98%
    05:00 +24°C° 0 mm 2 mps 757 mmHg 92%
    06:00 +25°C° 0 mm 2 mps 758 mmHg 87%
    07:00 +26°C° 0 mm 2 mps 758 mmHg 82%
    08:00 +28°C° 0 mm 2 mps 758 mmHg 72%
    09:00 +31°C° 0 mm 2 mps 758 mmHg 62%
    10:00 +34°C° 0 mm 2 mps 758 mmHg 53%
    11:00 +32°C° 0 mm 2 mps 758 mmHg 54%
    12:00 +32°C° 0 mm 2 mps 757 mmHg 54%
    13:00 +31°C° 0 mm 2 mps 757 mmHg 55%
    14:00 +32°C° 0 mm 2 mps 757 mmHg 53%
    15:00 +34°C° 0 mm 3 mps 757 mmHg 52%
    16:00 +34°C° 0 mm 3 mps 757 mmHg 50%
    17:00 +32°C° 0.1 mm 4 mps 757 mmHg 62%
    18:00 +28°C° 0.1 mm 4 mps 758 mmHg 74%
    19:00 +26°C° 0.1 mm 5 mps 759 mmHg 85%
    20:00 +25°C° 0 mm 4 mps 759 mmHg 86%
    21:00 +25°C° 0 mm 4 mps 759 mmHg 86%
    22:00 +24°C° 0 mm 3 mps 760 mmHg 86%
    23:00 +24°C° 0 mm 3 mps 759 mmHg 87%

    24 January, Thursday

    Time Temperature Precipitation Wind Pressure Humidity
    00:00 +23°C° 0 mm 4 mps 759 mmHg 87%
    01:00 +23°C° 0 mm 4 mps 759 mmHg 88%
    02:00 +22°C° 0 mm 4 mps 759 mmHg 88%
    03:00 +22°C° 0 mm 4 mps 759 mmHg 89%
    04:00 +22°C° 0 mm 4 mps 759 mmHg 90%
    05:00 +22°C° 0 mm 4 mps 759 mmHg 88%
    06:00 +23°C° 0 mm 4 mps 760 mmHg 86%
    07:00 +25°C° 0 mm 4 mps 760 mmHg 84%
    08:00 +26°C° 0 mm 4 mps 760 mmHg 80%
    09:00 +27°C° 0 mm 4 mps 760 mmHg 75%
    10:00 +28°C° 0 mm 4 mps 760 mmHg 71%
    11:00 +29°C° 0 mm 4 mps 760 mmHg 70%
    12:00 +29°C° 0 mm 4 mps 760 mmHg 68%
    13:00 +30°C° 0 mm 4 mps 759 mmHg 67%
    14:00 +30°C° 0 mm 4 mps 759 mmHg 66%
    15:00 +30°C° 0 mm 4 mps 759 mmHg 66%
    16:00 +32°C° 0 mm 5 mps 758 mmHg 66%
    17:00 +29°C° 0 mm 4 mps 759 mmHg 75%
    18:00 +27°C° 0 mm 3 mps 759 mmHg 83%
    19:00 +26°C° 0 mm 2 mps 760 mmHg 91%
    20:00 +25°C° 0 mm 2 mps 760 mmHg 94%
    21:00 +24°C° 0 mm 1 mps 760 mmHg 96%
    22:00 +24°C° 0 mm 1 mps 761 mmHg 99%
    23:00 +24°C° 0 mm 1 mps 761 mmHg 99%

    25 January, Friday

    Time Temperature Precipitation Wind Pressure Humidity
    00:00 +24°C° 0 mm 1 mps 760 mmHg 98%
    01:00 +24°C° 0 mm 1 mps 760 mmHg 98%
    02:00 +24°C° 0 mm 1 mps 760 mmHg 98%
    03:00 +24°C° 0 mm 1 mps 759 mmHg 97%
    04:00 +24°C° 0 mm 1 mps 759 mmHg 97%
    05:00 +25°C° 0 mm 1 mps 759 mmHg 95%
    06:00 +23°C° 0 mm 0 mps 760 mmHg 93%
    07:00 +24°C° 0 mm 0 mps 760 mmHg 91%
    08:00 +27°C° 0 mm 1 mps 760 mmHg 83%
    09:00 +29°C° 0 mm 1 mps 759 mmHg 75%
    10:00 +30°C° 0 mm 1 mps 759 mmHg 67%
    11:00 +34°C° 0 mm 2 mps 758 mmHg 58%
    12:00 +37°C° 0 mm 2 mps 758 mmHg 48%
    13:00 +40°C° 0 mm 3 mps 757 mmHg 38%
    14:00 +40°C° 0 mm 4 mps 756 mmHg 40%
    15:00 +38°C° 0 mm 4 mps 756 mmHg 43%
    16:00 +39°C° 0 mm 5 mps 755 mmHg 45%
    17:00 +35°C° 0 mm 5 mps 756 mmHg 54%
    18:00 +33°C° 0 mm 5 mps 756 mmHg 64%
    19:00 +30°C° 0 mm 5 mps 756 mmHg 73%
    20:00 +29°C° 0 mm 5 mps 756 mmHg 76%
    21:00 +28°C° 0 mm 4 mps 757 mmHg 79%
    22:00 +27°C° 0 mm 4 mps 757 mmHg 82%
    23:00 +27°C° 0 mm 4 mps 756 mmHg 84%

    26 January, Saturday

    Time Temperature Precipitation Wind Pressure Humidity
    00:00 +26°C° 0 mm 3 mps 756 mmHg 86%
    01:00 +26°C° 0 mm 3 mps 755 mmHg 88%
    02:00 +26°C° 0 mm 3 mps 755 mmHg 87%
    03:00 +26°C° 0 mm 3 mps 755 mmHg 85%
    04:00 +25°C° 0 mm 2 mps 755 mmHg 84%
    05:00 +27°C° 0 mm 2 mps 755 mmHg 77%
    06:00 +28°C° 0 mm 2 mps 756 mmHg 70%
    07:00 +30°C° 0 mm 2 mps 756 mmHg 63%
    08:00 +34°C° 0 mm 2 mps 756 mmHg 53%
    09:00 +37°C° 0 mm 2 mps 756 mmHg 44%
    10:00 +40°C° 0 mm 2 mps 756 mmHg 35%
    11:00 +43°C° 0 mm 3 mps 756 mmHg 30%
    12:00 +45°C° 0 mm 3 mps 755 mmHg 26%
    13:00 +47°C° 0 mm 3 mps 755 mmHg 22%
    14:00 +47°C° 0 mm 4 mps 754 mmHg 26%
    15:00 +45°C° 0 mm 5 mps 754 mmHg 31%
    16:00 +42°C° 0 mm 5 mps 754 mmHg 35%
    17:00 +39°C° 0 mm 5 mps 754 mmHg 44%
    18:00 +35°C° 0 mm 5 mps 754 mmHg 53%
    19:00 +33°C° 0 mm 5 mps 755 mmHg 62%
    20:00 +32°C° 0 mm 4 mps 755 mmHg 64%
    21:00 +30°C° 0 mm 4 mps 755 mmHg 66%
    22:00 +30°C° 0 mm 3 mps 756 mmHg 68%
    23:00 +28°C° 0 mm 3 mps 756 mmHg 73%
    Show more